Weather in Zhuravka

Russia / Volgograd Oblast     50°51′30″N   43°51′18″E
temp.,
°C
wind,
m/s
gust,
m/s
humid.,
%
clouds,
%
prec.,
mm/h
press.,
hPa
HPBL,
m
1 august, sun
sun100:00+21ne11682 0.3 101111
03:00+20se127045 0.3 101211
06:00+22se11672 0.0 101335
09:00+28ene11475 0.0 1013497
12:00+32se22352 0.0 10121599
15:00+34se12261 0.0 10112908
18:00+33n343137 0.0 1011174
21:00+25ne49553 0.0 1012162
2 august, mon
mon200:00+23ene35581 0.0 101263
03:00+23se35414 0.0 101254
06:00+24ese365549 0.0 1012131
09:00+31sse243030 0.0 1012552
12:00+36ssw331715 0.0 10113500
15:00+36wnw24172 0.0 10103774
18:00+35ne222367 0.0 100947
21:00+28sse47344 0.0 1009110
3 august, tue
tue300:00+26s593752 0.0 1010135
03:00+24sw224310 0.0 100920
06:00+25s34451 0.0 101068
09:00+32ssw562973 0.0 1010666
12:00+36sw5720100 0.0 10092668
15:00+33nw10112679 0.0 10081212
18:00+30se123593 0.0 1009108
21:00+24nne235798 0.1 100844
4 august, wed
wed400:00+19n359199 1.2 1011118
03:00+18nnw2393100 2.6 101289
06:00+19nw478624 0.7 1012247
09:00+24nnw56630 0.7 1013901
12:00+28nw65440 0.0 10141819
15:00+29nnw65360 0.0 10142144
18:00+27nnw5638100 0.0 10151754
21:00+22nw385349 0.0 1016166
5 august, thu
thu500:00+20n355478 0.0 101676
03:00+18nne2261100 0.0 101717
06:00+19nnw11611 0.0 101739
09:00+25wnw22401 0.0 1018709
12:00+29nw45273 0.0 10172769
15:00+29nw442517 0.0 10162723
18:00+27nnw3532100 0.0 1016265
21:00+21ne35420 0.0 101777